CZ-6A DEB, 54439

Orbit data source: Space-Track

CZ-6A DEB, 54439 is space debris in SSO originally from a launch on Fri, 11 Nov 2022 UTC launched from the Taiyaun Space Center, China (TSC). Debris objects in space refer to the collection of defunct objects orbiting the Earth. Examples of debris include non-operational satellites, rocket bodies, and fragments generated from explosions, collisions, or faulty payload assembly.

Loading next visibility...
Identifier
54439, 2022-151FP
Orbit
SSO
Country
Flag of CNCN / PRC
Related business
Manufacturer
SAST
Mission
Spacecraft
Bus & Motor
Unknown
Mass
Unknown
Launch date (UTC)
2022-11-11 (4 years ago)
Launch vehicle
Unknown
Launch site
Taiyaun Space Center, China (TSC)
Object type
Payload
Rocket body
Debris
Shape & HBR
Unknown shape, 0.1 m
Radar Cross Section
Medium (>0.1 m² and <1 m²)

Expand to show TLE details & history
Last TLE update: 2 days ago

TLE from 2 days ago
0 CZ-6A DEB
1 54439U 22151FP  26171.35090843  .00000256  00000-0  25838-3 0  9997
2 54439  99.0306 120.9179 0202351 170.3597 190.1529 13.77020885180814
Epoch: 2026-06-20T08:25Z
TLE epoch observation values (Epoch: 2026-06-20T08:25:18.488Z)
Latitude
-0.00007°
Longitude
86.02409°
Altitude
1,123.889 km
Speed
7.218 km/s
True Right ascension
08h 03m 40s
True Declination
0° 00' 00"
Sunlit
Object was in daylight at epoch
Visualization orbit readout
Latitude
Unknown
Longitude
Unknown
Altitude
Unknown
Speed
Unknown
Apparent Right ascension
Unknown
Apparent Declination
Unknown
Sunlit
N/A
Visualization observer readout
Local Sidereal Time
21:33:49
Azimuth
Unknown
Elevation
Unknown
Doppler factor
Unknown
Orbital elements
Apogee altitude
1,120.427 km
Perigee altitude
822.978 km
Semi-major axis
7,349.839 km
Eccentricity
0.02024
Inclination
99.0306°
RAAN
120.9179°
Arg. of periapsis
170.3597°
True anomaly
189.7541°
Mean anomaly
190.1529°
Eccentric anomaly
189.95252°
Mean motion
3.4445 °/min
Orbital period
104.51 mins
BSTAR
0.00025838
Loading maneuver chart data...
Computing Atmospheric mass density...
Loading historical data...
Loading historical data...
Loading historical data...
Loading historical data...
Loading historical data...
Loading historical data...
Loading historical data...

Documentation

Showing up to 5 results
|